CZ-7A R/B, 64063

Orbit data source: Space-Track

CZ-7A R/B, 64063 is space debris in HEO originally from a launch on Tue, 20 May 2025 UTC launched from the Wenchang Satellite Launch Center (WSC). Debris objects in space refer to the collection of defunct objects orbiting the Earth. Examples of debris include non-operational satellites, rocket bodies, and fragments generated from explosions, collisions, or faulty payload assembly.

Loading next visibility...
Identifier
64063, 2025-106B
Orbit
HEO
Country
Flag of CNCN / PRC
Related business
Manufacturer
CALT
Mission
Spacecraft
Bus & Motor
CZ-3A STAGE 3, Unknown motor
Mass
~2,800 kg wet, ~2,800 kg dry
Launch date (UTC)
2025-05-20 (1 year ago)
Launch vehicle
Unknown
Launch site
Wenchang Satellite Launch Center (WSC)
Object type
Payload
Rocket body
Debris
Shape & HBR
Cyl + 1 Nozzle, 6.2 m
Radar Cross Section
32.704 m², Large (>1 m²)

Expand to show TLE details & history
Last TLE update: 13 hours ago

TLE from 13 hours ago
0 CZ-7A R/B
1 64063U 25106B   26171.31392253  .00345762 -25781-6  14501-2 0  9998
2 64063  15.4177 225.7544 6614599 217.5208  69.6668  3.24584529 11263
Epoch: 2026-06-20T07:32Z
TLE epoch observation values (Epoch: 2026-06-20T07:32:02.906Z)
Latitude
0.00001°
Longitude
-155.75772°
Altitude
16,422.094 km
Speed
3.779 km/s
True Right ascension
15h 03m 08s
True Declination
0° 00' 00"
Sunlit
Object was in daylight at epoch
Visualization orbit readout
Latitude
Unknown
Longitude
Unknown
Altitude
Unknown
Speed
Unknown
Apparent Right ascension
Unknown
Apparent Declination
Unknown
Sunlit
N/A
Visualization observer readout
Local Sidereal Time
07:18:54
Azimuth
Unknown
Elevation
Unknown
Doppler factor
Unknown
Orbital elements
Apogee altitude
25,643.924 km
Perigee altitude
146.698 km
Semi-major axis
19,273.448 km
Eccentricity
0.66146
Inclination
15.4177°
RAAN
225.7544°
Arg. of periapsis
217.5208°
True anomaly
142.48048°
Mean anomaly
69.6668°
Eccentric anomaly
106.08245°
Mean motion
0.81116 °/min
Orbital period
443.81 mins
BSTAR
0.0014501
Loading maneuver chart data...
Computing Atmospheric mass density...
Loading historical data...
Loading historical data...
Loading historical data...
Loading historical data...
Loading historical data...
Loading historical data...
Loading historical data...
Other satellites on launch #106 in the year 2025 (2025-05-20 UTC)

Documentation

Showing up to 5 results
|